Location: Newark
(36.1358°N, 115.1208°W)
Time: 12:13:05
(UTC+00:00)

Explorer 11/Cluster Stage 4 - All Passes

Search period start: 17 February 2020 00:00
Search period end: 27 February 2020 00:00
Orbit: 467 x 1259 km, 28.8° (Epoch: 16 February)

Date Brightness Start Highest point End Pass type
(mag) Time Alt. Az. Time Alt. Az. Time Alt. Az.
17 Feb - 10:53:31 10° S 10:55:06 12° SSE 10:56:40 10° SE night (unlit)
17 Feb - 12:39:49 10° SW 12:42:47 24° S 12:45:51 10° ESE visible
17 Feb - 14:27:28 10° WSW 14:30:34 25° S 14:33:59 10° SE daylight
17 Feb - 16:16:07 10° SW 16:18:26 14° SSW 16:20:58 10° SSE daylight
18 Feb - 10:42:15 10° SSW 10:44:27 15° SSE 10:46:33 10° SE night (unlit)
18 Feb - 12:29:08 10° SW 12:32:10 25° S 12:35:14 10° ESE visible
18 Feb - 14:17:00 10° WSW 14:19:56 22° S 14:23:06 10° SE daylight
18 Feb - 16:06:22 10° SW 16:07:46 11° SSW 16:09:15 10° S daylight
19 Feb - 10:31:08 10° SSW 10:33:48 17° SSE 10:36:18 10° SE night (unlit)
19 Feb - 12:18:27 10° SW 12:21:34 26° S 12:24:37 10° ESE visible
19 Feb - 14:06:34 10° WSW 14:09:19 20° S 14:12:12 10° SE daylight
20 Feb - 10:20:05 10° SW 10:23:10 20° S 10:25:59 10° ESE night (unlit)
20 Feb - 12:07:46 10° WSW 12:10:58 26° S 12:14:01 10° ESE visible
20 Feb - 13:56:08 10° WSW 13:58:41 18° SSW 14:01:17 10° SSE visible
21 Feb - 08:23:02 10° S 08:24:36 11° SSE 08:26:06 10° SE night (unlit)
21 Feb - 10:09:04 10° SW 10:12:31 23° S 10:15:36 10° ESE night (unlit)
21 Feb - 11:57:04 10° WSW 12:00:20 26° S 12:03:25 10° SE visible
21 Feb - 13:45:46 10° SW 13:48:02 16° SSW 13:50:20 10° SSE visible
22 Feb - 08:11:07 10° SSW 08:13:54 14° SSE 08:16:26 10° SE night (unlit)
22 Feb - 09:58:04 10° SW 10:01:53 25° S 10:05:12 10° ESE night (unlit)
22 Feb - 11:46:21 10° WSW 11:49:43 26° S 11:52:49 10° SE visible
22 Feb - 13:35:26 10° SW 13:37:23 14° SSW 13:39:19 10° SSE visible
23 Feb - 07:59:34 10° SSW 08:03:12 18° SSE 08:06:23 10° ESE night (unlit)
23 Feb - 09:47:06 10° SW 09:51:14 28° S 09:54:46 10° ESE night (unlit)
23 Feb - 11:35:37 10° WSW 11:39:05 26° S 11:42:14 10° SE visible
23 Feb - 13:25:13 10° SW 13:26:42 12° SSW 13:28:11 10° S visible
24 Feb - 07:48:10 10° SSW 07:52:28 21° SSE 07:56:10 10° ESE night (unlit)
24 Feb - 09:36:07 10° WSW 09:40:35 31° S 09:44:19 10° ESE night (unlit)
24 Feb - 11:24:52 10° WSW 11:28:27 25° S 11:31:37 10° SE visible
24 Feb - 13:15:19 10° SSW 13:16:01 10° SSW 13:16:42 10° SSW visible
25 Feb - 05:51:20 10° S 05:53:28 12° SSE 05:55:29 10° SE night (unlit)
25 Feb - 07:36:51 10° SW 07:41:45 25° SSE 07:45:52 10° ESE night (unlit)
25 Feb - 09:25:08 10° WSW 09:29:54 33° S 09:33:50 10° ESE night (unlit)
25 Feb - 11:14:07 10° WSW 11:17:47 25° SSW 11:21:00 10° SE visible
26 Feb - 05:39:03 10° S 05:42:39 15° SSE 05:45:56 10° SE night (unlit)
26 Feb - 07:25:36 10° SW 07:30:59 28° SSE 07:35:29 10° ESE night (unlit)
26 Feb - 09:14:10 10° WSW 09:19:13 35° S 09:23:21 10° ESE night (unlit)
26 Feb - 11:03:20 10° WSW 11:07:07 24° SSW 11:10:22 10° SE night (unlit)
